This is the latest recevied weather packets stored in our database for station/object KC5AV. If no packets are shown the sender has not sent any weather packets the latest 10 day(s).
| Time | Temp. | Humidity | Pressure | Rain* | Wind** | Luminosity | Snow |
|---|---|---|---|---|---|---|---|
| 1777750322 | 23.89° C | 40% | 1021 hPa | 0 mm | - | 161 W/m² | - |
| 1777750017 | 23.89° C | 41% | 1020.8 hPa | 0 mm | - | 898 W/m² | - |
| 1777749715 | 22.78° C | 46% | 1021.1 hPa | 0 mm | - | 922 W/m² | - |
| 1777749411 | 22.78° C | 45% | 1021.1 hPa | 0 mm | - | 149 W/m² | - |
| 1777749108 | 23.33° C | 39% | 1021.1 hPa | 0 mm | - | 180 W/m² | - |
| 1777748806 | 24.44° C | 40% | 1021.2 hPa | 0 mm | - | 937 W/m² | - |
| 1777748504 | 23.89° C | 45% | 1021.2 hPa | 0 mm | - | 998 W/m² | - |
| 1777748198 | 23.33° C | 40% | 1021.3 hPa | 0 mm | - | 979 W/m² | - |
| 1777747895 | 23.33° C | 42% | 1021.5 hPa | 0 mm | - | 970 W/m² | - |
| 1777747591 | 23.89° C | 46% | 1021.3 hPa | 0 mm | - | 223 W/m² | - |
| 1777747287 | 23.33° C | 44% | 1021.3 hPa | 0 mm | - | 1007 W/m² | - |
| 1777746984 | 22.78° C | 41% | 1021.3 hPa | 0 mm | - | 940 W/m² | - |
| 1777746680 | 23.33° C | 45% | 1021.8 hPa | 0 mm | - | 969 W/m² | - |
| 1777746375 | 23.33° C | 44% | 1021.7 hPa | 0 mm | - | 961 W/m² | - |
| 1777746071 | 23.89° C | 44% | 1021.9 hPa | 0 mm | - | 967 W/m² | - |
| 1777745769 | 23.33° C | 50% | 1022 hPa | 0 mm | - | 959 W/m² | - |
| 1777745468 | 23.89° C | 41% | 1022 hPa | 0 mm | - | 972 W/m² | - |
| 1777745164 | 23.89° C | 43% | 1022 hPa | 0 mm | - | 943 W/m² | - |
| 1777744861 | 23.33° C | 46% | 1022.2 hPa | 0 mm | - | 923 W/m² | - |
| 1777744555 | 22.78° C | 48% | 1021.9 hPa | 0 mm | - | 910 W/m² | - |
| 1777744251 | 22.78° C | 44% | 1022.2 hPa | 0 mm | - | 907 W/m² | - |
| 1777743949 | 23.33° C | 42% | 1022.1 hPa | 0 mm | - | 151 W/m² | - |
| 1777743645 | 22.78° C | 52% | 1022.2 hPa | 0 mm | - | 776 W/m² | - |
| 1777743342 | 22.78° C | 46% | 1022.2 hPa | 0 mm | - | 759 W/m² | - |
| 1777743040 | 22.22° C | 51% | 1022.2 hPa | 0 mm | - | 730 W/m² | - |
* Rain latest hour (hover to see other rain measurements)
** Current wind speed in m/s (hover to see current wind gust speed)